Wind_Speed
10 14 16 17 19 20 19 19 16 15 13 10 9 7 6 4 3 2 1 0 1 2 2 3 4 5 5 6 6 6 6 6 6 6 6 7 7 8 9 10 11 12 13
7 11 15 16 17 18 19 19 17 15 13 11 9 8 6 5 4 3 2 1 1 2 2 3 4 5 6 6 6 6 6 7 7 7 7 7 8 8 9 10 11 12 13
6 9 13 15 17 17 18 18 15 15 13 11 10 8 7 5 4 4 3 2 1 2 2 2 4 5 5 6 6 7 7 7 8 8 8 8 8 9 10 11 11 13 14
3 7 12 14 16 17 17 17 16 14 13 12 10 9 8 6 5 4 3 2 1 1 1 1 3 4 5 5 6 7 7 8 9 9 9 10 10 11 11 12 13 13 14
1 5 10 13 15 16 16 16 15 14 13 11 11 9 8 7 6 5 4 3 2 2 1 1 2 3 4 5 6 7 9 10 11 11 11 11 12 12 12 13 14 14 15
1 2 6 11 13 15 15 15 15 14 13 12 11 10 9 8 6 6 5 5 4 4 4 3 4 4 5 6 7 8 10 11 12 13 13 13 13 14 14 14 15 15 15
3 1 3 7 10 13 15 15 15 14 13 12 11 10 9 8 8 7 7 7 6 6 6 6 6 6 7 8 9 10 12 13 14 14 14 15 15 15 15 16 16 16 17
3 2 2 5 7 10 12 13 14 14 13 13 12 11 10 10 9 9 9 9 9 8 8 8 8 9 9 10 11 12 13 14 15 15 16 16 16 16 16 17 17 18 18
4 3 2 4 6 8 10 12 13 13 13 13 13 12 12 11 11 11 11 11 11 11 11 11 11 12 12 13 13 14 15 15 16 16 17 17 17 18 18 18 19 20 20
5 4 4 5 6 8 9 11 12 13 13 13 14 14 13 13 14 14 14 14 14 14 14 15 15 15 15 16 16 16 17 17 18 18 18 18 19 19 20 20 20 21 21
6 6 6 6 7 9 10 11 12 12 13 14 15 16 16 16 16 16 17 17 17 17 18 18 18 18 19 19 19 19 19 19 19 20 20 20 20 21 21 22 22 22 22
9 8 8 8 9 10 11 12 12 13 15 16 17 18 18 18 19 19 19 20 20 20 21 21 21 21 22 22 22 22 22 22 22 22 22 22 23 23 23 23 23 24 24
12 11 11 11 11 11 12 13 14 15 16 18 19 20 20 21 21 22 22 23 23 23 24 24 24 24 25 25 25 25 25 24 24 25 25 25 25 25 25 25 25 26 26
13 13 13 13 13 13 14 15 15 16 18 19 20 21 22 23 24 24 25 25 25 26 26 26 26 27 27 27 27 27 27 27 27 27 27 27 27 28 28 28 28 28 28
16 16 15 16 15 16 16 17 18 19 20 21 22 23 24 25 26 27 27 27 28 28 28 28 29 29 29 29 29 29 29 29 29 29 29 30 30 30 31 31 31 30 30
19 18 18 18 19 19 20 21 22 22 22 23 24 26 26 27 28 28 29 29 30 30 30 30 31 31 31 31 31 31 31 31 31 31 32 32 32 33 33 33 33 33 33
22 22 22 22 23 23 24 24 25 26 26 26 27 28 29 29 30 30 31 31 32 32 32 32 32 31 31 32 33 33 33 34 34 34 34 34 35 35 36 36 36 36 36
25 25 25 25 26 26 27 27 28 28 29 29 30 30 30 31 32 32 33 33 33 33 33 33 33 33 33 34 35 35 36 36 37 37 37 37 38 39 39 38 38 38 38
26 27 28 28 29 29 30 30 30 31 32 32 32 32 32 33 34 35 35 35 34 34 35 35 36 36 36 37 38 39 39 40 40 40 41 41 41 42 42 42 41 41 41
27 29 30 31 31 31 31 32 32 33 34 35 34 34 35 35 35 36 37 37 37 37 38 38 39 39 40 40 42 43 43 43 43 44 44 44 44 45 45 45 44 44 44
26 28 30 31 32 32 33 34 35 35 35 36 37 37 37 38 38 38 38 39 40 41 41 42 42 42 43 44 45 46 47 48 48 48 47 47 47 47 48 48 48 47 47
25 27 29 30 30 31 32 33 35 36 36 36 37 37 37 38 40 41 41 41 41 43 43 44 44 46 47 47 48 50 51 51 52 51 51 51 51 51 51 51 51 51 51
26 27 28 28 29 29 31 32 34 35 36 37 38 38 39 39 40 41 42 43 44 44 45 46 48 49 50 51 52 53 54 55 55 55 56 55 55 55 55 55 54 54 54
25 26 25 26 27 29 31 32 33 34 34 35 37 38 38 38 40 41 43 44 46 47 48 49 50 52 53 54 56 57 58 59 59 59 59 59 60 60 59 58 58 57 55
26 26 27 27 28 28 30 31 32 33 34 35 36 38 39 41 42 43 44 46 47 48 50 52 53 55 56 58 59 60 61 62 63 64 64 64 64 64 63 61 60 59 57
27 28 28 29 29 30 31 32 33 34 36 37 39 40 41 42 43 45 46 48 50 52 54 56 57 59 60 62 63 64 65 66 66 67 67 67 66 65 64 63 62 60 59
Wind_Direction
220 213 212 213 214 213 213 212 210 208 209 209 208 206 203 200 199 196 206 99 37 32 26 25 23 16 11 7 1 356 351 345 337 329 320 311 301 292 285 279 275 272 269
227 215 214 211 209 212 208 206 209 206 205 205 205 200 194 191 188 188 178 138 86 70 58 44 36 28 23 19 17 14 9 2 351 340 329 317 307 301 296 288 281 277 274
234 215 208 206 204 204 200 200 203 201 204 206 203 196 189 185 187 189 179 154 123 88 63 43 33 26 24 22 19 17 12 5 357 348 337 327 316 307 300 295 289 283 278
242 210 200 200 198 198 198 198 200 202 205 206 201 195 192 190 192 191 184 177 165 112 51 25 17 12 9 10 10 7 3 358 352 346 340 332 323 314 306 299 293 288 283
267 204 199 202 202 199 199 201 200 201 203 205 201 201 197 196 196 195 197 203 213 227 267 312 337 346 347 349 351 351 349 346 344 340 334 328 322 316 310 304 298 291 286
348 197 198 201 204 204 202 202 203 204 204 207 207 205 204 205 206 208 215 225 234 243 257 278 300 312 319 323 327 332 333 333 333 333 330 325 321 316 310 305 300 295 290
341 295 200 197 204 206 205 207 207 205 208 210 211 210 212 215 219 224 231 240 248 255 263 277 291 298 302 307 312 318 321 322 323 324 324 323 319 315 311 306 302 298 293
334 322 225 199 201 208 210 213 212 211 214 216 220 219 221 226 232 236 240 248 255 262 268 275 283 290 294 297 302 309 314 316 318 318 319 320 318 314 311 307 305 301 297
317 303 264 230 223 221 218 215 215 217 221 225 227 228 231 236 240 244 248 253 258 264 269 274 279 285 289 292 297 302 306 309 311 312 313 313 314 313 309 306 305 302 299
293 282 272 256 243 234 225 224 222 224 228 231 233 235 238 242 246 250 255 258 261 265 269 274 278 282 286 289 292 297 300 303 306 306 307 308 308 309 309 306 303 302 299
286 276 265 263 252 240 234 232 234 235 237 238 240 242 244 247 252 255 259 262 264 267 270 274 278 281 284 286 288 291 295 297 300 302 303 304 305 306 305 304 302 300 298
285 283 276 267 261 256 250 247 246 247 247 247 248 248 250 252 256 259 262 264 267 270 272 275 278 281 284 285 286 288 291 293 297 299 300 301 302 303 303 303 301 300 298
279 281 278 272 268 264 262 259 256 254 253 253 254 255 256 258 260 262 264 266 269 272 274 276 279 282 284 285 286 288 290 292 294 296 297 299 300 301 301 301 301 300 298
276 275 274 272 271 269 267 264 262 261 260 259 259 260 260 261 262 264 266 268 271 273 276 278 280 283 284 286 287 288 290 291 293 295 297 297 299 300 300 300 300 299 298
274 275 274 273 272 270 268 267 265 265 265 264 263 263 264 265 266 267 269 271 273 275 277 279 281 283 285 286 286 288 290 291 293 294 296 296 297 298 299 298 298 298 297
271 271 271 271 270 270 269 268 268 267 266 267 267 267 267 267 268 269 271 273 274 277 278 280 282 284 285 286 287 288 290 291 292 293 294 295 295 296 297 297 296 296 296
267 267 267 268 267 266 268 268 268 268 267 265 267 268 268 268 269 271 273 274 276 279 281 282 284 285 285 286 287 288 290 291 292 292 293 294 295 294 294 294 294 294 294
263 264 264 264 264 264 264 266 267 268 268 267 267 267 269 270 272 272 273 275 277 279 281 282 284 285 285 286 287 287 289 290 291 292 292 293 294 293 292 292 292 293 293
262 262 262 263 263 263 263 263 264 265 266 267 267 267 269 271 273 273 274 275 277 279 281 282 283 284 285 287 288 288 288 289 290 290 291 292 292 292 291 290 291 292 292
262 262 262 263 262 261 261 262 263 264 265 266 266 267 268 269 271 272 274 277 278 279 281 283 283 283 285 286 287 288 288 289 289 290 290 290 290 289 288 289 289 290 290
267 265 263 264 263 262 261 261 262 263 265 266 266 266 266 269 271 273 274 277 279 280 281 282 283 283 285 286 287 288 287 288 288 289 288 288 288 287 286 287 288 288 288
270 269 266 265 265 264 263 262 263 264 267 269 270 269 270 273 274 276 277 279 280 281 282 283 284 285 286 286 286 287 287 287 288 288 287 287 287 286 286 286 286 286 286
271 270 269 267 266 267 268 269 267 268 269 270 271 270 271 273 276 277 280 282 283 283 284 285 285 286 286 287 287 287 287 287 287 287 287 286 285 285 285 285 285 285 284
275 273 272 273 272 271 271 274 275 274 274 273 274 275 277 279 281 281 283 285 285 285 285 286 286 287 286 286 286 286 286 286 286 286 286 285 285 285 284 284 283 283 282
277 278 276 276 277 277 278 280 281 280 280 281 281 281 283 285 284 284 285 286 286 287 287 287 287 287 286 286 286 286 286 285 285 285 285 284 284 283 283 282 282 281 280
277 278 279 278 279 280 281 283 284 282 282 281 282 283 285 286 286 287 288 287 288 288 288 288 287 287 287 286 286 286 285 285 284 284 284 284 283 282 282 281 279 279 278
Height
5852 5853 5855 5857 5860 5862 5865 5868 5870 5872 5875 5877 5879 5880 5881 5881 5882 5882 5882 5882 5881 5881 5880 5880 5879 5878 5878 5877 5876 5875 5874 5873 5873 5872 5872 5871 5870 5869 5869 5869 5869 5868 5868
5850 5851 5852 5854 5856 5859 5862 5865 5868 5871 5874 5876 5877 5879 5879 5880 5881 5881 5881 5881 5881 5880 5880 5880 5879 5878 5877 5877 5876 5875 5874 5873 5872 5871 5870 5870 5869 5868 5867 5866 5866 5866 5865
5849 5849 5850 5852 5854 5857 5860 5864 5866 5870 5872 5874 5876 5877 5878 5879 5880 5880 5880 5880 5880 5880 5880 5879 5879 5878 5877 5877 5876 5874 5873 5872 5871 5870 5869 5868 5867 5866 5865 5864 5863 5863 5862
5849 5848 5849 5851 5854 5856 5859 5862 5865 5868 5871 5873 5874 5876 5877 5878 5879 5879 5880 5880 5879 5879 5879 5879 5878 5878 5877 5876 5875 5874 5873 5872 5870 5869 5867 5866 5865 5864 5863 5862 5861 5860 5859
5849 5849 5849 5851 5853 5856 5858 5861 5864 5867 5869 5871 5873 5874 5875 5877 5877 5878 5879 5879 5879 5878 5878 5878 5877 5877 5876 5875 5874 5873 5871 5870 5869 5867 5866 5864 5862 5861 5860 5859 5858 5857 5856
5850 5849 5850 5851 5853 5855 5857 5860 5863 5865 5868 5870 5871 5873 5874 5875 5876 5877 5877 5878 5878 5877 5877 5877 5876 5876 5875 5874 5873 5871 5870 5868 5867 5865 5863 5862 5860 5858 5857 5855 5854 5853 5852
5851 5850 5850 5851 5852 5854 5856 5858 5861 5863 5866 5868 5869 5871 5872 5874 5875 5875 5876 5876 5876 5876 5876 5875 5875 5874 5873 5872 5871 5870 5868 5866 5864 5863 5861 5859 5857 5855 5853 5852 5850 5849 5848
5852 5851 5851 5851 5852 5853 5855 5857 5859 5862 5864 5866 5868 5869 5871 5872 5873 5874 5874 5874 5874 5874 5874 5873 5872 5872 5871 5870 5868 5867 5865 5864 5862 5860 5857 5855 5853 5851 5849 5848 5846 5844 5843
5852 5851 5851 5851 5852 5852 5854 5856 5858 5860 5862 5864 5866 5867 5868 5870 5871 5871 5871 5871 5871 5871 5871 5870 5870 5869 5867 5866 5865 5864 5862 5860 5858 5856 5854 5852 5850 5847 5845 5843 5842 5840 5838
5851 5851 5851 5851 5851 5852 5853 5855 5857 5859 5861 5862 5864 5865 5866 5867 5868 5868 5868 5868 5868 5868 5867 5867 5866 5865 5864 5862 5861 5860 5858 5856 5854 5852 5850 5847 5845 5843 5841 5839 5837 5835 5833
5850 5850 5850 5851 5851 5851 5852 5854 5855 5857 5858 5860 5861 5862 5863 5864 5864 5864 5864 5864 5864 5864 5863 5862 5861 5860 5859 5858 5856 5855 5853 5851 5849 5847 5845 5843 5840 5838 5836 5834 5831 5829 5827
5848 5848 5849 5849 5850 5851 5851 5852 5853 5854 5855 5857 5858 5859 5859 5860 5860 5860 5860 5860 5859 5859 5858 5857 5856 5855 5854 5852 5851 5849 5847 5845 5843 5841 5839 5837 5835 5832 5830 5827 5825 5823 5821
5846 5846 5846 5847 5847 5848 5849 5849 5850 5851 5852 5853 5854 5854 5855 5855 5855 5855 5855 5854 5854 5853 5853 5852 5850 5849 5848 5846 5845 5843 5841 5839 5837 5835 5833 5830 5828 5826 5823 5821 5818 5816 5814
5842 5843 5843 5844 5844 5845 5845 5846 5846 5847 5848 5848 5849 5849 5850 5850 5850 5850 5849 5849 5848 5847 5846 5845 5844 5843 5841 5839 5838 5836 5834 5832 5830 5827 5825 5823 5821 5818 5816 5813 5811 5808 5806
5838 5839 5839 5839 5840 5841 5841 5842 5842 5843 5843 5843 5844 5844 5844 5844 5844 5843 5843 5842 5841 5841 5839 5838 5837 5835 5834 5832 5830 5828 5826 5824 5822 5820 5817 5815 5812 5810 5807 5805 5802 5800 5797
5834 5834 5834 5835 5835 5836 5836 5837 5837 5837 5837 5837 5838 5838 5838 5837 5837 5836 5836 5835 5834 5833 5832 5831 5829 5828 5826 5825 5822 5820 5818 5816 5814 5811 5809 5806 5804 5801 5798 5796 5793 5791 5788
5829 5830 5830 5830 5830 5830 5831 5831 5831 5831 5831 5831 5831 5831 5830 5830 5829 5829 5828 5827 5826 5825 5824 5822 5821 5820 5818 5816 5814 5811 5809 5807 5804 5802 5799 5797 5794 5792 5789 5786 5784 5781 5778
5824 5824 5824 5824 5824 5824 5824 5824 5824 5824 5824 5824 5823 5823 5822 5822 5821 5821 5820 5818 5817 5816 5815 5813 5812 5810 5808 5806 5804 5801 5799 5797 5794 5792 5789 5786 5784 5781 5778 5775 5773 5770 5768
5817 5817 5817 5817 5817 5817 5817 5817 5817 5816 5816 5815 5815 5814 5814 5813 5812 5811 5810 5809 5808 5807 5805 5803 5801 5800 5798 5795 5793 5790 5788 5785 5783 5780 5778 5775 5773 5770 5766 5763 5761 5759 5756
5810 5810 5810 5809 5809 5809 5809 5809 5808 5807 5807 5806 5806 5805 5805 5804 5803 5802 5800 5799 5797 5796 5794 5792 5790 5788 5786 5784 5781 5778 5775 5773 5771 5768 5765 5763 5760 5757 5754 5751 5749 5746 5744
5803 5802 5801 5801 5800 5800 5800 5800 5799 5798 5798 5797 5796 5795 5794 5793 5792 5791 5790 5788 5786 5784 5782 5780 5778 5776 5774 5771 5768 5765 5762 5760 5757 5754 5752 5749 5747 5744 5740 5737 5735 5733 5730
5795 5794 5793 5792 5792 5792 5791 5790 5790 5789 5788 5788 5787 5786 5785 5783 5782 5781 5778 5776 5774 5772 5770 5768 5766 5763 5761 5758 5755 5751 5748 5745 5742 5740 5737 5734 5731 5728 5725 5723 5721 5718 5714
5788 5786 5785 5784 5784 5784 5783 5782 5781 5780 5779 5778 5776 5776 5775 5773 5771 5769 5767 5765 5763 5760 5758 5755 5753 5750 5746 5743 5740 5737 5733 5729 5725 5723 5721 5718 5715 5712 5709 5707 5704 5701 5698
5780 5779 5778 5777 5776 5776 5775 5774 5772 5771 5769 5768 5767 5765 5763 5761 5760 5758 5755 5753 5750 5748 5744 5741 5738 5735 5731 5728 5724 5720 5716 5712 5708 5705 5702 5699 5696 5693 5691 5688 5686 5684 5682
5773 5772 5771 5770 5769 5768 5767 5765 5764 5762 5761 5759 5757 5755 5753 5751 5749 5746 5743 5740 5737 5734 5730 5727 5723 5719 5715 5711 5707 5702 5698 5694 5690 5686 5683 5680 5677 5674 5671 5669 5667 5665 5663
5766 5765 5763 5762 5761 5760 5759 5757 5755 5754 5752 5750 5747 5745 5742 5740 5737 5734 5730 5726 5723 5719 5714 5710 5706 5702 5697 5693 5688 5683 5679 5674 5669 5665 5662 5659 5655 5652 5650 5648 5646 5645 5644